This is the latest recevied weather packets stored in our database for station/object MKSRDG. If no packets are shown the sender has not sent any weather packets the latest 10 day(s).
| Time | Temp. | Humidity | Pressure | Rain* | Wind** | Luminosity | Snow |
|---|---|---|---|---|---|---|---|
| 1777664397 | 16.11° C | 77% | 1015.9 hPa | 0 mm | - | 972 W/m² | - |
| 1777663497 | 15° C | 80% | 1016 hPa | 0 mm | - | 896 W/m² | - |
| 1777662597 | 15° C | 79% | 1016.1 hPa | 0 mm | - | 981 W/m² | - |
| 1777661697 | 14.44° C | 80% | 1016 hPa | 0 mm | - | 754 W/m² | - |
| 1777660797 | 14.44° C | 82% | 1016 hPa | 0 mm | - | 612 W/m² | - |
| 1777659897 | 15° C | 80% | 1016 hPa | 0 mm | - | 675 W/m² | - |
| 1777658997 | 13.89° C | 79% | 1016 hPa | 0 mm | - | 795 W/m² | - |
| 1777658097 | 13.89° C | 82% | 1016.1 hPa | 0 mm | - | 545 W/m² | - |
| 1777657197 | 13.89° C | 81% | 1016.1 hPa | 0 mm | - | 385 W/m² | - |
| 1777656297 | 12.78° C | 86% | 1016.1 hPa | 0 mm | - | 707 W/m² | - |
| 1777655397 | 12.22° C | 87% | 1016.1 hPa | 0 mm | - | 341 W/m² | - |
| 1777654497 | 12.22° C | 86% | 1015.9 hPa | 0 mm | - | 265 W/m² | - |
| 1777653597 | 11.11° C | 88% | 1016 hPa | 0 mm | - | 691 W/m² | - |
| 1777652697 | 10.56° C | 89% | 1016 hPa | 0 mm | - | 621 W/m² | - |
| 1777651797 | 10° C | 90% | 1016.1 hPa | 0 mm | - | 308 W/m² | - |
| 1777650897 | 10° C | 91% | 1016.2 hPa | 0 mm | - | 294 W/m² | - |
| 1777649997 | 9.44° C | 92% | 1016.4 hPa | 0 mm | - | 176 W/m² | - |
| 1777649097 | 9.44° C | 93% | 1016.3 hPa | 0 mm | - | 202 W/m² | - |
| 1777648197 | 8.89° C | 93% | 1016.3 hPa | 0 mm | - | 181 W/m² | - |
| 1777647297 | 8.89° C | 93% | 1016.2 hPa | 0 mm | - | 172 W/m² | - |
| 1777646397 | 8.33° C | 93% | 1016.1 hPa | 0 mm | - | 123 W/m² | - |
| 1777645497 | 8.33° C | 94% | 1015.9 hPa | 0 mm | - | 98 W/m² | - |
| 1777644597 | 8.33° C | 94% | 1015.8 hPa | 0 mm | - | 76 W/m² | - |
| 1777643697 | 7.78° C | 94% | 1015.5 hPa | 0 mm | - | 56 W/m² | - |
| 1777642797 | 7.78° C | 94% | 1015.5 hPa | 0 mm | - | 39 W/m² | - |
* Rain latest hour (hover to see other rain measurements)
** Current wind speed in m/s (hover to see current wind gust speed)